Regional Weather Roundup
Issued by NWS Green Bay, WI

Home | Current Version | Previous Version | Text Only | Print | Product List | Glossary On
Versions: 1 2 3 4 5 6 7 8 9 10 11 12 13 14 15 16 17 18 19 20 21 22 23 24 25 26 27 28 29 30 31 32 33 34 35 36 37 38 39 40 41 42 43 44 45 46 47 48 49 50
000
ASUS43 KGRB 300811
RWRGRB

NORTH-CENTRAL AND NORTHEAST WISCONSIN REGIONAL WEATHER ROUNDUP
NATIONAL WEATHER SERVICE GREEN BAY WI
300 AM CDT SAT APR 30 2016

WIZ005-009-010>012-018-019-300900-
NORTH CENTRAL WISCONSIN

CITY           SKY/WX    TMP DP  RH WIND       PRES   REMARKS
IRONWOOD         N/A     34  34 100 E3        30.20F
MANITOWISH WTR CLOUDY    38  31  76 NE6       30.19R
ARBOR VITAE    CLOUDY    37  30  75 NE3       30.18R
EAGLE RIVER    CLOUDY    34  29  82 CALM      30.18S
LAND O LAKES   CLOUDY    37  30  74 NE5       30.20F
RHINELANDER    CLEAR     37  28  70 E5        30.17F
PHILLIPS       CLOUDY    36  30  79 NE3       30.16S
ANTIGO         CLOUDY    32  28  86 CALM      30.17F
TOMAHAWK       CLEAR     32  31  94 CALM      30.17F
MERRILL        CLOUDY    32  30  93 E3        30.17F
$$

WIZ013-073-300900-
NORTHEAST WISCONSIN

CITY           SKY/WX    TMP DP  RH WIND       PRES   REMARKS
IRON MOUNTAIN  CLOUDY    38  28  67 N7        30.19R
MARINETTE      CLOUDY    39  28  65 CALM      30.19S
OCONTO         MOCLDY    39  35  86 NE5       30.17F
$$

WIZ017-030-035>037-045-300900-
CENTRAL WISCONSIN

CITY           SKY/WX    TMP DP  RH WIND       PRES   REMARKS
MEDFORD        CLOUDY    35  32  90 NE5       30.13F
WAUSAU         CLOUDY    42  30  62 NE7       30.13F
MOSINEE        CLOUDY    36  30  80 E8        30.14F
MARSHFIELD     CLOUDY    40  33  76 E6        30.12F
WISC RAPIDS    CLOUDY    39  31  72 E6        30.14F
STEVENS POINT  CLOUDY    35  31  85 NE3       30.14F
WAUPACA        PTCLDY    38  34  85 CALM      30.14F
SHAWANO        PTCLDY    41  33  72 NE8       30.16F
CLINTONVILLE   CLOUDY    36  30  80 CALM      30.15F
WAUTOMA        CLOUDY    35  32  88 CALM      30.14
$$

WIZ038-039-048-051-300900-
FOX VALLEY

CITY           SKY/WX    TMP DP  RH WIND       PRES   REMARKS
NWS GREEN BAY  PTCLDY    38  32  79 NE7       30.15F
APPLETON       PTCLDY    39  28  65 NE5       30.12F
OSHKOSH        PTCLDY    36  31  82 CALM      30.13F
FOND DU LAC    CLOUDY    35  30  82 CALM      30.13F
$$

WIZ022-050-052-300900-
EAST CENTRAL WISCONSIN

CITY           SKY/WX    TMP DP  RH WIND       PRES   REMARKS
EPHRAIM        FAIR      40  34  78 NE5       30.18R
STURGEON BAY   CLOUDY    43  28  56 NE8       30.19S
MANITOWOC      CLOUDY    38  30  73 N3        30.16S
SHEBOYGAN      PTCLDY    34  30  85 NW3       30.14S
$$

LMZ563-521-522-541>543-300900-
LAKESHORE

STATION/POSITION TIME  TEMP    WIND        PRES    VSBY  WAVE
                       AIR SEA DIR/SP/G                  HT/PER
                 (UTC) (F)     (DEG/KT/KT) (MB)    (MI)  (FT/S)
SHEBOYGAN LKSHOR 0800   43     320/  2/  3 1021.4F
KEWAUNEE LKSHORE 0700   45      10/  8/ 12 1020.3S
ALGOMA MARINA    0715          330/  9/ 10   N/A
NORTHPORT PIER   0700   42      30/  5/  7 1022.0S
N MID LAKE BUOY  0750   40 38   20/ 10/ 12 1022.4R         1
CHAMBERS ISLAND  0700   41      10/  9/ 11 1022.0
MENOMINEE LKSHOR 0700   42      20/ 11/ 12 1020.7F
$$




USA.gov is the U.S. government's official web portal to all federal, state and local government web resources and services.